Regional Weather Roundup
Issued by NWS Kansas City/Pleasant Hill, MO

Home | Current Version | Previous Version | Text Only | Print | Product List | Glossary On
Versions: 1 2 3 4 5 6 7 8 9 10 11 12 13 14 15 16 17 18 19 20 21 22 23 24 25 26 27
000
ASUS43 KEAX 051410
RWREAX

WEATHER ROUNDUP FOR EASTERN KANSAS AND NORTHWEST MISSOURI
NATIONAL WEATHER SERVICE KANSAS CITY/PLEASANT HILL MO
900 AM CDT THU MAY 05 2016

KSZ040-057-103>105-MOZ028-029-037-043-051500-
...KANSAS CITY METROPOLITAN AREA...

CITY           SKY/WX    TMP DP  RH WIND       PRES   REMARKS
K.C. INTL      MOSUNNY   58  43  57 N7        30.08R
K.C. DOWNTOWN  SUNNY     58  44  60 CALM      30.08R
LEES SUMMIT    SUNNY     58  42  55 NE5       30.08R
OLATHE - IXD   SUNNY     58  45  62 NW9       30.09R
OLATHE - OJC   SUNNY     59  40  49 N9        30.08R
LAWRENCE       SUNNY     56  47  71 W5        30.09R

$$

MOZ001>008-011>017-020>025-030>033-038>040-044>046-053-054-051500-
...NORTHERN AND CENTRAL MISSOURI...

CITY           SKY/WX    TMP DP  RH WIND       PRES   REMARKS
ST. JOSEPH     SUNNY     56  44  64 N5        30.09R
MOSBY          SUNNY     54  45  71 CALM      30.08R
WARRENSBURG    SUNNY     55  43  62 N3        30.07R
WHITEMAN AFB   MOSUNNY   55  43  64 N7        30.06R
CLINTON        SUNNY     57  45  62 N7        30.07R
SEDALIA        SUNNY     57  42  57 NE8       30.07R
WARSAW         NOT AVBL
CHILLICOTHE      N/A     57  41  55 N3        30.08R
KIRKSVILLE     SUNNY     54  38  54 NE7       30.07R

$$

MOZ041-047>049-056>058-063>065-088>090-097-051500-
...EASTERN AND SOUTHERN MISSOURI...

CITY           SKY/WX    TMP DP  RH WIND       PRES   REMARKS
ST. LOUIS INTL SUNNY     53  37  54 N15       30.01R
SPIRIT OF STL  SUNNY     53  39  59 N8        30.02R
COLUMBIA       SUNNY     55  40  56 N8        30.05R
JEFFERSON CITY SUNNY     55  39  54 N6        30.04R
ROLLA          SUNNY     52  41  66 N9        30.01R
OSAGE BEACH    SUNNY     55  36  47 N3        30.05R
SPRINGFIELD    SUNNY     58  42  55 NW10      30.05R
BRANSON        SUNNY     57  41  54 W6        30.06R
JOPLIN         SUNNY     57  46  66 NW5       30.08R
WEST PLAINS    SUNNY     58  38  47 NW8       30.03R

$$

IAZ060-094-KSZ022-034>040-054-083-096-NEZ052-066-093-051500-
...KANSAS...SOUTHEAST NEBRASKA AND IOWA...

CITY           SKY/WX    TMP DP  RH WIND       PRES   REMARKS
TOPEKA         SUNNY     56  46  69 W7        30.09R
MANHATTAN      SUNNY     54  45  71 S3        30.11R
EMPORIA        SUNNY     57  45  64 NW7       30.11R
CHANUTE        SUNNY     59  45  59 NW7       30.10R
WICHITA        SUNNY     61  43  51 NE6       30.12R
OMAHA          MOSUNNY   56  44  64 N3        30.09R
LINCOLN        SUNNY     56  41  57 CALM      30.11R
FALLS CITY     SUNNY     56  45  66 NW3       30.08R
LAMONI         SUNNY     54  36  50 NE5       30.08R
DES MOINES     PTSUNNY   56  32  40 SE6       30.10R

$$





USA.gov is the U.S. government's official web portal to all federal, state and local government web resources and services.